TimePDT,TemperatureF,Dew PointF,Humidity,Sea Level PressureIn,VisibilityMPH,Wind Direction,Wind SpeedMPH,Gust SpeedMPH,PrecipitationIn,Events,Conditions,WindDirDegrees,DateUTC
12:53 AM,69.1,55.9,63,30.02,10.0,West,8.1,-,N/A,,Clear,280,2013-08-31 07:53:00
1:53 AM,66.0,54.0,65,30.01,10.0,Calm,Calm,-,N/A,,Clear,0,2013-08-31 08:53:00
2:53 AM,62.1,55.0,78,30.01,10.0,SSE,3.5,-,N/A,,Clear,150,2013-08-31 09:53:00
3:53 AM,63.0,55.0,75,30.00,10.0,NNW,5.8,-,N/A,,Clear,330,2013-08-31 10:53:00
4:53 AM,59.0,54.0,83,30.01,10.0,Calm,Calm,-,N/A,,Clear,0,2013-08-31 11:53:00
5:53 AM,60.1,55.0,83,30.02,10.0,Calm,Calm,-,N/A,,Clear,0,2013-08-31 12:53:00
6:53 AM,60.1,54.0,80,30.03,10.0,SW,3.5,-,N/A,,Clear,230,2013-08-31 13:53:00
7:53 AM,63.0,55.0,75,30.03,10.0,Calm,Calm,-,N/A,,Clear,0,2013-08-31 14:53:00
8:53 AM,66.0,53.1,63,30.02,10.0,NW,3.5,-,N/A,,Clear,310,2013-08-31 15:53:00
9:53 AM,71.1,54.0,55,30.01,10.0,Calm,Calm,-,N/A,,Clear,0,2013-08-31 16:53:00
10:53 AM,75.9,54.0,46,29.98,10.0,Variable,3.5,-,N/A,,Clear,0,2013-08-31 17:53:00
11:53 AM,81.0,52.0,36,29.95,10.0,NE,3.5,-,N/A,,Clear,50,2013-08-31 18:53:00
12:53 PM,84.9,50.0,30,29.91,10.0,Variable,3.5,-,N/A,,Clear,0,2013-08-31 19:53:00
1:53 PM,90.0,48.9,24,29.88,10.0,NE,12.7,17.3,N/A,,Clear,40,2013-08-31 20:53:00
2:53 PM,91.0,48.9,23,29.85,10.0,NE,6.9,-,N/A,,Clear,50,2013-08-31 21:53:00
3:53 PM,93.9,48.0,21,29.82,10.0,NE,11.5,-,N/A,,Clear,50,2013-08-31 22:53:00
4:53 PM,93.0,48.0,21,29.80,10.0,ENE,10.4,-,N/A,,Clear,60,2013-08-31 23:53:00
5:53 PM,93.9,48.0,21,29.78,10.0,ENE,6.9,-,N/A,,Clear,60,2013-09-01 00:53:00
6:53 PM,90.0,48.9,24,29.78,10.0,ENE,5.8,-,N/A,,Clear,60,2013-09-01 01:53:00
7:53 PM,82.9,48.9,31,29.78,10.0,East,5.8,-,N/A,,Clear,80,2013-09-01 02:53:00
8:53 PM,77.0,52.0,42,29.80,10.0,WSW,5.8,-,N/A,,Clear,250,2013-09-01 03:53:00
9:53 PM,73.9,51.1,45,29.81,10.0,SW,4.6,-,N/A,,Clear,230,2013-09-01 04:53:00
10:53 PM,72.0,53.1,51,29.81,10.0,Calm,Calm,-,N/A,,Clear,0,2013-09-01 05:53:00
11:53 PM,70.0,50.0,49,29.81,10.0,East,5.8,-,N/A,,Clear,100,2013-09-01 06:53:00